User: anonymous   Login
Location: �clusier
(49.9361°N, 2.7869°E)
Time: 02:14:53
(UTC+00:00)
Language:

Spot 2 Rocket - Orbit

View from above orbital plane
View from above orbital plane
View from above satellite
View from above satellite

Ground track
Ground track

The orbit data is extracted from the following two-line orbital elements,

1 20443U 90005H   21259.16344489  .00000013  00000-0  18794-4 0  9992
2 20443  98.5211 324.7463 0011453  68.0249 292.2154 14.38143102657610
Epoch (UTC): 16 September 2021 03:55:21
Eccentricity: 0.0011453
inclination: 98.5211°
perigee height: 756 km
apogee height: 773 km
right ascension of ascending node: 324.7463°
argument of perigee: 68.0249°
revolutions per day: 14.38143102
mean anomaly at epoch: 292.2154°
orbit number at epoch: 65761

The dashed part of the orbit path shows where the satellite is in the earth's shadow,  

DLR